User: anonymous   Login
Location: Unspecified
(29.9680°N, 0.0000°E)
Time: 18:47:04
(UTC+00:00)
Language:

Vanguard 2 - Orbit

View from above orbital plane
View from above orbital plane
View from above satellite
View from above satellite

Ground track
Ground track

The orbit data is extracted from the following two-line orbital elements,

1    11U 59001A   20220.37406638 -.00000051 +00000-0 -40589-4 0  9998
2    11 032.8667 224.1986 1468188 178.9467 181.4745 11.85686365281028
Epoch (UTC): 07 August 2020 08:58:39
Eccentricity: 0.1468188
inclination: 32.8667°
perigee height: 553 km
apogee height: 2938 km
right ascension of ascending node: 224.1986°
argument of perigee: 178.9467°
revolutions per day: 11.85686365
mean anomaly at epoch: 181.4745°
orbit number at epoch: 28102

The dashed part of the orbit path shows where the satellite is in the earth's shadow,  

DLR